M I D A S
Marine Information and Data Acquisition System
Tripno 468 of the Zeeleeuw from 2003-04-24 04:30:00 to 2003-04-24 21:00:00
Back to CruiseResearch ActivitiesStationsMapUnderway DataData graphs

EquipmentUnitsComments
TimeDGPSUTC
LatitudeDGPSDM.mWGS84
LongitudeDGPSDM.mWGS84
SpeedMeteo Stationm/sRelative wind speed
DirectionMeteo StationdegRelative wind direction
TemperatureMeteo Stationdeg CelciusAir temperature
PressureMeteo StationPaAtmospheric pressure
HumidityMeteo Station%Relative humidity
Missing or incorrect values are displayed as -999
Metereological data collected by the RV Zeeleeuw from 2003-04-24 04:30:00 to 2003-04-24 21:00:00
                                                                                    Next 1000 lines
Time Latitude Longitude Speed Direction Temperature Pressure Humidity
2003-04-24 04:30:07 51°13.6 2°56.1 1.7 50 8.7 101530 91
2003-04-24 04:30:11 51°13.6 2°56.1 1.9 55 8.7 101530 91
2003-04-24 04:30:17 51°13.6 2°56.1 1.5 55 8.7 101530 91
2003-04-24 04:30:23 51°13.6 2°56.1 1.6 56 8.7 101530 91
2003-04-24 04:30:27 51°13.6 2°56.1 1.6 45 8.7 101530 91
2003-04-24 04:30:31 51°13.6 2°56.1 1.6 133 8.7 101530 91
2003-04-24 04:30:37 51°13.6 2°56.1 2.1 42 8.7 101530 91
2003-04-24 04:30:41 51°13.6 2°56.1 1.6 53 8.7 101530 91
2003-04-24 04:30:47 51°13.6 2°56.1 1.3 54 8.7 101530 91
2003-04-24 04:30:51 51°13.6 2°56.1 1.2 62 8.7 101530 91
2003-04-24 04:30:57 51°13.6 2°56.1 1.4 60 8.7 101530 91
2003-04-24 04:31:01 51°13.6 2°56.1 1.6 62 8.7 101530 91
2003-04-24 04:31:07 51°13.6 2°56.1 1.9 317 8.7 101530 91
2003-04-24 04:31:11 51°13.6 2°56.1 1.6 45 8.7 101530 91
2003-04-24 04:31:17 51°13.6 2°56.1 1.5 53 8.7 101530 91
2003-04-24 04:31:21 51°13.6 2°56.11 1.4 52 8.7 101530 91
2003-04-24 04:31:27 51°13.6 2°56.11 2.1 133 8.7 101530 91
2003-04-24 04:31:31 51°13.6 2°56.11 2 134 8.7 101530 91
2003-04-24 04:31:37 51°13.6 2°56.11 2.3 60 8.7 101530 91
2003-04-24 04:31:41 51°13.6 2°56.11 2.5 61 8.7 101530 91
2003-04-24 04:31:47 51°13.6 2°56.11 2.3 48 8.7 101530 91
2003-04-24 04:31:51 51°13.6 2°56.11 2.7 134 8.7 101530 91
2003-04-24 04:31:57 51°13.6 2°56.1 1.8 64 8.7 101530 91
2003-04-24 04:32:01 51°13.6 2°56.1 2.2 50 8.7 101530 91
2003-04-24 04:32:07 51°13.6 2°56.1 2 319 8.7 101530 91
2003-04-24 04:32:11 51°13.6 2°56.1 2.1 48 8.7 101530 91
2003-04-24 04:32:17 51°13.6 2°56.1 2.3 49 8.7 101530 91
2003-04-24 04:32:21 51°13.6 2°56.1 2.4 48 8.7 101530 91
2003-04-24 04:32:27 51°13.6 2°56.1 1.7 58 8.7 101530 91
2003-04-24 04:32:31 51°13.6 2°56.1 1.6 46 8.7 101530 91
2003-04-24 04:32:37 51°13.6 2°56.1 2.4 46 8.7 101530 91
2003-04-24 04:32:41 51°13.6 2°56.1 2.3 70 8.7 101520 91
2003-04-24 04:32:47 51°13.6 2°56.1 2.4 62 8.7 101520 91
2003-04-24 04:32:51 51°13.6 2°56.1 2.7 62 8.7 101530 91
2003-04-24 04:32:57 51°13.6 2°56.1 2.2 61 8.7 101530 91
2003-04-24 04:33:01 51°13.6 2°56.1 2.3 48 8.7 101530 91
2003-04-24 04:33:07 51°13.6 2°56.11 2.2 59 8.7 101530 91
2003-04-24 04:33:11 51°13.6 2°56.11 2.1 59 8.7 101520 91
2003-04-24 04:33:17 51°13.6 2°56.1 3 50 8.7 101520 91
2003-04-24 04:33:21 51°13.6 2°56.11 2.8 54 8.7 101530 91
2003-04-24 04:33:27 51°13.6 2°56.1 2.4 48 8.7 101530 91
2003-04-24 04:33:31 51°13.6 2°56.1 2.4 57 8.7 101520 91
2003-04-24 04:33:37 51°13.6 2°56.1 1.9 60 8.7 101520 91
2003-04-24 04:33:41 51°13.6 2°56.1 2 61 8.7 101520 91
2003-04-24 04:33:47 51°13.6 2°56.1 3 58 8.7 101520 91
2003-04-24 04:33:51 51°13.6 2°56.1 2.9 56 8.7 101530 91
2003-04-24 04:33:57 51°13.6 2°56.1 3.4 47 8.7 101530 91
2003-04-24 04:34:01 51°13.6 2°56.1 3 49 8.7 101530 91
2003-04-24 04:34:07 51°13.6 2°56.1 3.3 46 8.7 101530 91
2003-04-24 04:34:11 51°13.6 2°56.1 3.2 40 8.6 101520 91
2003-04-24 04:34:17 51°13.6 2°56.11 3 129 8.6 101520 91
2003-04-24 04:34:21 51°13.6 2°56.1 2.9 48 8.7 101520 91
2003-04-24 04:34:27 51°13.6 2°56.11 2 30 8.7 101520 91
2003-04-24 04:34:33 51°13.6 2°56.11 1.8 30 8.7 101520 91
2003-04-24 04:34:37 51°13.6 2°56.11 1.6 131 8.7 101520 91
2003-04-24 04:34:41 51°13.6 2°56.1 2 41 8.7 101520 91
2003-04-24 04:34:47 51°13.6 2°56.1 2.8 317 8.7 101520 91
2003-04-24 04:34:51 51°13.6 2°56.1 2.9 27 8.7 101520 91
2003-04-24 04:34:57 51°13.6 2°56.1 1.8 51 8.7 101520 91
2003-04-24 04:35:01 51°13.6 2°56.1 1.6 39 8.7 101530 91
2003-04-24 04:35:07 51°13.6 2°56.1 2 30 8.7 101530 91
2003-04-24 04:35:11 51°13.6 2°56.1 2.4 32 8.7 101530 91
2003-04-24 04:35:17 51°13.6 2°56.1 2.6 42 8.7 101530 91
2003-04-24 04:35:21 51°13.6 2°56.1 2.1 50 8.7 101530 91
2003-04-24 04:35:27 51°13.6 2°56.1 1.9 22 8.7 101530 91
2003-04-24 04:35:31 51°13.6 2°56.1 2.3 44 8.7 101530 91
2003-04-24 04:35:37 51°13.6 2°56.1 1.9 34 8.7 101530 91
2003-04-24 04:35:41 51°13.6 2°56.1 2.1 29 8.7 101530 91
2003-04-24 04:35:47 51°13.6 2°56.1 1.3 2 8.7 101530 91
2003-04-24 04:35:51 51°13.6 2°56.1 1.1 2 8.7 101530 91
2003-04-24 04:35:57 51°13.6 2°56.1 1.7 37 8.7 101530 91
2003-04-24 04:36:01 51°13.6 2°56.1 1.8 38 8.7 101530 91
2003-04-24 04:36:07 51°13.6 2°56.1 1.4 31 8.7 101530 91
2003-04-24 04:36:13 51°13.6 2°56.1 1.1 22 8.7 101530 91
2003-04-24 04:36:17 51°13.6 2°56.1 1.4 6 8.7 101530 91
2003-04-24 04:36:21 51°13.6 2°56.1 1.3 43 8.7 101530 91
2003-04-24 04:36:27 51°13.6 2°56.1 1.3 29 8.7 101530 91
2003-04-24 04:36:31 51°13.6 2°56.1 1.6 26 8.7 101530 91
2003-04-24 04:36:37 51°13.6 2°56.1 1.6 31 8.7 101530 91
2003-04-24 04:36:41 51°13.6 2°56.1 1.3 46 8.7 101530 91
2003-04-24 04:36:47 51°13.6 2°56.1 2 38 8.7 101530 91
2003-04-24 04:36:51 51°13.6 2°56.1 1.9 39 8.7 101530 91
2003-04-24 04:36:57 51°13.6 2°56.1 2.4 18 8.7 101530 91
2003-04-24 04:37:01 51°13.6 2°56.1 2.4 22 8.7 101530 91
2003-04-24 04:37:07 51°13.6 2°56.1 2.5 30 8.7 101530 91
2003-04-24 04:37:11 51°13.6 2°56.1 2.6 18 8.7 101530 91
2003-04-24 04:37:17 51°13.6 2°56.1 2.6 34 8.7 101530 91
2003-04-24 04:37:21 51°13.6 2°56.11 2.5 23 8.7 101530 91
2003-04-24 04:37:27 51°13.6 2°56.11 2.1 37 8.7 101530 91
2003-04-24 04:37:31 51°13.6 2°56.11 1.8 47 8.7 101530 91
2003-04-24 04:37:37 51°13.6 2°56.11 1.6 9 8.7 101530 91
2003-04-24 04:37:41 51°13.6 2°56.11 2.2 34 8.7 101530 91
2003-04-24 04:37:47 51°13.6 2°56.1 2 19 8.7 101530 91
2003-04-24 04:37:51 51°13.6 2°56.1 2 38 8.7 101530 91
2003-04-24 04:37:57 51°13.6 2°56.1 2 31 8.7 101530 91
2003-04-24 04:38:01 51°13.6 2°56.1 1.8 38 8.8 101530 91
2003-04-24 04:38:07 51°13.6 2°56.1 2 32 8.8 101530 91
2003-04-24 04:38:11 51°13.6 2°56.11 2 26 8.7 101540 91
2003-04-24 04:38:17 51°13.6 2°56.11 2.3 44 8.7 101540 91
2003-04-24 04:38:21 51°13.6 2°56.1 2.2 44 8.7 101530 91
2003-04-24 04:38:27 51°13.6 2°56.1 1.7 23 8.7 101530 91
2003-04-24 04:38:31 51°13.6 2°56.1 2 23 8.7 101540 91
2003-04-24 04:38:37 51°13.6 2°56.1 2.1 35 8.7 101540 91
2003-04-24 04:38:41 51°13.6 2°56.1 2 29 8.7 101530 91
2003-04-24 04:38:47 51°13.6 2°56.1 2.7 45 8.7 101530 91
2003-04-24 04:38:51 51°13.6 2°56.1 2.8 29 8.8 101530 91
2003-04-24 04:38:57 51°13.6 2°56.1 2.6 38 8.8 101530 91
2003-04-24 04:39:01 51°13.6 2°56.1 2.7 133 8.7 101540 91
2003-04-24 04:39:07 51°13.6 2°56.1 2.3 37 8.7 101540 91
2003-04-24 04:39:11 51°13.6 2°56.1 1.9 35 8.7 101530 91
2003-04-24 04:39:17 51°13.6 2°56.1 1.9 32 8.7 101530 91
2003-04-24 04:39:21 51°13.6 2°56.1 2.4 319 8.8 101530 91
2003-04-24 04:39:27 51°13.6 2°56.1 1.6 39 8.8 101530 91
2003-04-24 04:39:31 51°13.6 2°56.1 1.5 24 8.8 101530 91
2003-04-24 04:39:37 51°13.6 2°56.1 1.9 28 8.8 101530 91
2003-04-24 04:39:41 51°13.6 2°56.1 1.7 39 8.8 101530 91
2003-04-24 04:39:47 51°13.6 2°56.1 1.5 30 8.8 101530 91
2003-04-24 04:39:51 51°13.6 2°56.1 0.9 30 8.8 101530 91
2003-04-24 04:39:57 51°13.6 2°56.1 1.9 36 8.8 101530 91
2003-04-24 04:40:01 51°13.6 2°56.1 2.4 37 8.7 101530 91
2003-04-24 04:40:07 51°13.6 2°56.1 2.3 39 8.7 101530 91
2003-04-24 04:40:11 51°13.6 2°56.1 1.7 39 8.7 101540 91
2003-04-24 04:40:17 51°13.6 2°56.1 1.6 24 8.7 101540 91
2003-04-24 04:40:21 51°13.6 2°56.1 1.6 25 8.7 101540 91
2003-04-24 04:40:27 51°13.6 2°56.1 1.6 317 8.7 101540 91
2003-04-24 04:40:31 51°13.6 2°56.1 2.1 34 8.8 101540 91
2003-04-24 04:40:37 51°13.6 2°56.1 2 51 8.8 101540 91
2003-04-24 04:40:41 51°13.6 2°56.1 2.2 50 8.8 101530 91
2003-04-24 04:40:47 51°13.6 2°56.1 1.5 37 8.8 101530 91
2003-04-24 04:40:53 51°13.6 2°56.1 1.6 37 8.8 101530 91
2003-04-24 04:40:57 51°13.6 2°56.1 1.9 318 8.8 101530 91
2003-04-24 04:41:01 51°13.6 2°56.1 2.1 39 8.8 101540 91
2003-04-24 04:41:07 51°13.6 2°56.1 1.8 26 8.8 101540 91
2003-04-24 04:41:11 51°13.6 2°56.1 1.8 29 8.8 101530 91
2003-04-24 04:41:17 51°13.6 2°56.1 1.9 38 8.8 101530 91
2003-04-24 04:41:21 51°13.6 2°56.1 1.7 39 8.8 101540 91
2003-04-24 04:41:27 51°13.6 2°56.1 1.4 317 8.8 101540 91
2003-04-24 04:41:31 51°13.6 2°56.1 1.3 317 8.8 101540 91
2003-04-24 04:41:37 51°13.6 2°56.1 1.4 58 8.8 101540 91
2003-04-24 04:41:41 51°13.6 2°56.1 1.5 62 8.7 101540 91
2003-04-24 04:41:47 51°13.6 2°56.1 1.4 66 8.7 101540 91
2003-04-24 04:41:51 51°13.6 2°56.1 1.3 69 8.7 101530 91
2003-04-24 04:41:57 51°13.6 2°56.1 1.6 58 8.7 101530 91
2003-04-24 04:42:01 51°13.6 2°56.1 1.4 132 8.8 101530 91
2003-04-24 04:42:07 51°13.6 2°56.1 2 317 8.8 101530 91
2003-04-24 04:42:11 51°13.6 2°56.1 2 41 8.8 101530 91
2003-04-24 04:42:17 51°13.6 2°56.1 1.8 47 8.8 101530 91
2003-04-24 04:42:21 51°13.6 2°56.1 1.8 45 8.8 101530 91
2003-04-24 04:42:27 51°13.6 2°56.1 1.5 55 8.8 101530 91
2003-04-24 04:42:31 51°13.6 2°56.1 1.4 56 8.7 101530 91
2003-04-24 04:42:37 51°13.6 2°56.1 1.9 62 8.7 101530 91
2003-04-24 04:42:41 51°13.6 2°56.1 1.8 46 8.7 101530 91
2003-04-24 04:42:47 51°13.6 2°56.1 2.1 46 8.7 101530 91
2003-04-24 04:42:51 51°13.6 2°56.1 2 54 8.7 101530 91
2003-04-24 04:42:57 51°13.6 2°56.1 2.1 54 8.7 101530 91
2003-04-24 04:43:01 51°13.6 2°56.1 2.2 51 8.7 101530 91
2003-04-24 04:43:07 51°13.6 2°56.1 1.9 50 8.7 101530 91
2003-04-24 04:43:11 51°13.6 2°56.1 1.7 46 8.7 101530 91
2003-04-24 04:43:17 51°13.6 2°56.1 1.9 49 8.7 101530 91
2003-04-24 04:43:21 51°13.6 2°56.1 1.9 49 8.7 101530 91
2003-04-24 04:43:27 51°13.6 2°56.1 1.8 61 8.7 101530 91
2003-04-24 04:43:31 51°13.6 2°56.1 1.9 48 8.7 101530 91
2003-04-24 04:43:37 51°13.6 2°56.1 2.2 59 8.7 101530 91
2003-04-24 04:43:41 51°13.6 2°56.1 2.5 131 8.7 101530 91
2003-04-24 04:43:47 51°13.6 2°56.1 1.5 58 8.7 101530 91
2003-04-24 04:43:51 51°13.6 2°56.1 2 53 8.7 101530 91
2003-04-24 04:43:57 51°13.6 2°56.1 1.8 66 8.7 101530 91
2003-04-24 04:44:01 51°13.6 2°56.1 2 65 8.7 101530 91
2003-04-24 04:44:07 51°13.6 2°56.1 1.3 74 8.7 101530 91
2003-04-24 04:44:11 51°13.6 2°56.1 1.5 58 8.7 101530 91
2003-04-24 04:44:17 51°13.6 2°56.1 2.1 57 8.7 101530 91
2003-04-24 04:44:21 51°13.6 2°56.1 2 54 8.7 101530 91
2003-04-24 04:44:27 51°13.6 2°56.1 2.2 62 8.7 101530 91
2003-04-24 04:44:31 51°13.6 2°56.1 2.1 62 8.7 101530 91
2003-04-24 04:44:37 51°13.6 2°56.1 1.9 72 8.7 101530 91
2003-04-24 04:44:41 51°13.6 2°56.1 1.9 71 8.7 101530 91
2003-04-24 04:44:47 51°13.6 2°56.1 2.2 44 8.7 101530 91
2003-04-24 04:44:51 51°13.6 2°56.1 1.9 54 8.7 101530 91
2003-04-24 04:44:57 51°13.6 2°56.1 2.1 317 8.7 101530 91
2003-04-24 04:45:01 51°13.6 2°56.1 1.9 54 8.7 101530 91
2003-04-24 04:45:07 51°13.6 2°56.1 1.8 53 8.7 101530 91
2003-04-24 04:45:11 51°13.6 2°56.1 1.7 60 8.7 101530 91
2003-04-24 04:45:17 51°13.6 2°56.1 2.6 55 8.7 101530 91
2003-04-24 04:45:21 51°13.6 2°56.1 2.9 54 8.7 101530 91
2003-04-24 04:45:27 51°13.6 2°56.1 2 59 8.7 101530 91
2003-04-24 04:45:31 51°13.6 2°56.1 2.2 57 8.7 101530 91
2003-04-24 04:45:37 51°13.6 2°56.1 2.9 48 8.7 101530 91
2003-04-24 04:45:41 51°13.6 2°56.1 2.9 55 8.7 101530 91
2003-04-24 04:45:47 51°13.6 2°56.1 2.4 49 8.7 101530 91
2003-04-24 04:45:51 51°13.6 2°56.1 2.4 49 8.7 101530 91
2003-04-24 04:45:57 51°13.6 2°56.1 1.8 60 8.7 101530 91
2003-04-24 04:46:01 51°13.6 2°56.1 1.8 62 8.7 101530 91
2003-04-24 04:46:07 51°13.6 2°56.1 1.9 56 8.7 101530 91
2003-04-24 04:46:11 51°13.6 2°56.1 2 53 8.7 101530 91
2003-04-24 04:46:17 51°13.6 2°56.1 2.4 52 8.7 101530 91
2003-04-24 04:46:21 51°13.6 2°56.1 2.3 56 8.7 101530 91
2003-04-24 04:46:27 51°13.6 2°56.1 1.9 57 8.7 101530 91
2003-04-24 04:46:31 51°13.6 2°56.1 2.2 55 8.7 101530 91
2003-04-24 04:46:37 51°13.6 2°56.1 1.8 66 8.7 101530 91
2003-04-24 04:46:41 51°13.6 2°56.1 2.1 66 8.7 101530 91
2003-04-24 04:46:47 51°13.6 2°56.1 1.6 54 8.7 101530 91
2003-04-24 04:46:51 51°13.6 2°56.1 1.9 56 8.7 101530 91
2003-04-24 04:46:57 51°13.6 2°56.1 1.7 48 8.7 101530 91
2003-04-24 04:47:01 51°13.6 2°56.1 1.7 48 8.7 101530 91
2003-04-24 04:47:07 51°13.6 2°56.1 1.6 46 8.7 101530 91
2003-04-24 04:47:11 51°13.6 2°56.1 1.3 48 8.7 101530 91
2003-04-24 04:47:17 51°13.6 2°56.1 1.4 63 8.7 101530 91
2003-04-24 04:47:21 51°13.6 2°56.1 1.6 56 8.7 101530 91
2003-04-24 04:47:27 51°13.6 2°56.1 2 52 8.7 101530 91
2003-04-24 04:47:31 51°13.6 2°56.1 2.2 53 8.7 101530 91
2003-04-24 04:47:37 51°13.6 2°56.1 1.8 44 8.7 101530 91
2003-04-24 04:47:41 51°13.6 2°56.1 1.8 39 8.7 101530 91
2003-04-24 04:47:47 51°13.6 2°56.1 1.8 55 8.7 101530 91
2003-04-24 04:47:51 51°13.6 2°56.1 1.6 32 8.7 101530 91
2003-04-24 04:47:57 51°13.6 2°56.1 1.2 55 8.7 101530 91
2003-04-24 04:48:01 51°13.6 2°56.1 1.2 64 8.7 101530 91
2003-04-24 04:48:07 51°13.6 2°56.1 1.7 42 8.7 101530 91
2003-04-24 04:48:11 51°13.6 2°56.1 1.9 52 8.7 101530 91
2003-04-24 04:48:17 51°13.6 2°56.1 2.5 34 8.7 101530 91
2003-04-24 04:48:21 51°13.6 2°56.1 2 47 8.7 101530 90
2003-04-24 04:48:27 51°13.6 2°56.1 2.1 36 8.7 101530 90
2003-04-24 04:48:31 51°13.6 2°56.1 2.3 48 8.7 101530 91
2003-04-24 04:48:37 51°13.6 2°56.1 1.9 133 8.7 101530 91
2003-04-24 04:48:41 51°13.6 2°56.1 2.2 317 8.7 101530 91
2003-04-24 04:48:47 51°13.6 2°56.1 1.6 41 8.7 101530 91
2003-04-24 04:48:51 51°13.6 2°56.1 1.5 49 8.7 101520 91
2003-04-24 04:48:57 51°13.6 2°56.1 1.2 61 8.7 101520 91
2003-04-24 04:49:01 51°13.6 2°56.1 1.8 45 8.7 101520 91
2003-04-24 04:49:07 51°13.6 2°56.1 2.2 43 8.7 101520 91
2003-04-24 04:49:11 51°13.6 2°56.1 2.3 38 8.7 101530 91
2003-04-24 04:49:17 51°13.6 2°56.1 1.8 23 8.7 101530 91
2003-04-24 04:49:21 51°13.6 2°56.1 1.5 24 8.7 101530 91
2003-04-24 04:49:27 51°13.6 2°56.1 1.8 27 8.7 101530 91
2003-04-24 04:49:31 51°13.6 2°56.1 2.2 45 8.7 101530 91
2003-04-24 04:49:37 51°13.6 2°56.1 2.2 33 8.7 101530 91
2003-04-24 04:49:41 51°13.6 2°56.1 2.8 31 8.7 101520 91
2003-04-24 04:49:47 51°13.6 2°56.1 2.4 27 8.7 101520 91
2003-04-24 04:49:51 51°13.6 2°56.1 2.2 19 8.7 101520 91
2003-04-24 04:49:57 51°13.6 2°56.1 2.4 37 8.7 101520 91
2003-04-24 04:50:01 51°13.6 2°56.1 2.7 36 8.7 101520 91
2003-04-24 04:50:07 51°13.6 2°56.1 2.5 50 8.7 101520 91
2003-04-24 04:50:11 51°13.6 2°56.1 2.2 53 8.7 101520 91
2003-04-24 04:50:17 51°13.6 2°56.09 2 66 8.7 101520 91
2003-04-24 04:50:21 51°13.6 2°56.09 1.8 71 8.7 101520 91
2003-04-24 04:50:27 51°13.61 2°56.08 1.3 60 8.7 101520 91
2003-04-24 04:50:31 51°13.61 2°56.08 1.2 60 8.7 101520 91
2003-04-24 04:50:37 51°13.61 2°56.07 1.6 87 8.7 101520 91
2003-04-24 04:50:41 51°13.61 2°56.07 1.5 70 8.7 101520 91
2003-04-24 04:50:47 51°13.61 2°56.06 1.6 75 8.7 101520 91
2003-04-24 04:50:51 51°13.61 2°56.05 1.7 90 8.7 101530 91
2003-04-24 04:50:57 51°13.61 2°56.04 1.4 74 8.7 101530 91
2003-04-24 04:51:01 51°13.62 2°56.04 1.4 70 8.7 101520 90
2003-04-24 04:51:07 51°13.62 2°56.03 1.7 79 8.7 101520 90
2003-04-24 04:51:11 51°13.62 2°56.02 1.4 72 8.7 101520 91
2003-04-24 04:51:17 51°13.62 2°56.01 0.4 161 8.7 101520 91
2003-04-24 04:51:21 51°13.62 2°56 0.3 216 8.7 101530 91
2003-04-24 04:51:27 51°13.63 2°55.99 1.1 154 8.7 101530 91
2003-04-24 04:51:31 51°13.63 2°55.98 1.3 151 8.7 101520 91
2003-04-24 04:51:37 51°13.63 2°55.97 1.8 131 8.7 101520 91
2003-04-24 04:51:41 51°13.63 2°55.96 1.9 122 8.7 101530 90
2003-04-24 04:51:47 51°13.64 2°55.95 1.6 116 8.7 101530 90
2003-04-24 04:51:51 51°13.64 2°55.94 2.1 102 8.7 101520 90
2003-04-24 04:51:57 51°13.64 2°55.93 1.8 138 8.7 101520 90
2003-04-24 04:52:01 51°13.65 2°55.92 2.1 152 8.7 101530 90
2003-04-24 04:52:07 51°13.65 2°55.91 1.7 159 8.7 101530 90
2003-04-24 04:52:11 51°13.65 2°55.9 1.7 147 8.7 101530 90
2003-04-24 04:52:17 51°13.66 2°55.89 2 131 8.7 101530 90
2003-04-24 04:52:23 51°13.66 2°55.88 1.6 121 8.7 101520 90
2003-04-24 04:52:27 51°13.66 2°55.87 1.1 109 8.7 101520 90
2003-04-24 04:52:31 51°13.67 2°55.86 1.1 105 8.7 101520 90
2003-04-24 04:52:37 51°13.67 2°55.85 1.6 121 8.7 101520 90
2003-04-24 04:52:41 51°13.67 2°55.84 1.7 129 8.7 101530 90
2003-04-24 04:52:47 51°13.67 2°55.83 1.1 77 8.7 101530 90
2003-04-24 04:52:51 51°13.68 2°55.83 1.4 65 8.7 101530 90
2003-04-24 04:52:57 51°13.68 2°55.82 1.6 83 8.7 101530 90
2003-04-24 04:53:03 51°13.68 2°55.81 1.4 101 8.7 101530 90
2003-04-24 04:53:07 51°13.68 2°55.8 1.4 61 8.7 101530 90
2003-04-24 04:53:11 51°13.68 2°55.79 1.6 320 8.7 101530 90
2003-04-24 04:53:17 51°13.68 2°55.78 1.2 69 8.7 101530 90
2003-04-24 04:53:21 51°13.68 2°55.78 1 73 8.7 101530 90
2003-04-24 04:53:27 51°13.68 2°55.77 1.2 47 8.7 101530 90
2003-04-24 04:53:31 51°13.68 2°55.76 1.4 45 8.7 101530 90
2003-04-24 04:53:37 51°13.68 2°55.75 1.5 35 8.7 101530 90
2003-04-24 04:53:41 51°13.68 2°55.75 1.3 29 8.7 101520 90
2003-04-24 04:53:47 51°13.68 2°55.74 1.4 22 8.7 101520 90
2003-04-24 04:53:51 51°13.68 2°55.74 1.2 12 8.7 101530 90
2003-04-24 04:53:57 51°13.68 2°55.73 1.2 10 8.7 101530 90
2003-04-24 04:54:01 51°13.68 2°55.73 1.3   8.7 101530 90
2003-04-24 04:54:07 51°13.68 2°55.73 1.8 332 8.7 101530 90
2003-04-24 04:54:13 51°13.68 2°55.72 2.2 335 8.7 101520 90
2003-04-24 04:54:17 51°13.68 2°55.72 2.3 340 8.7 101520 90
2003-04-24 04:54:21 51°13.69 2°55.72 2.3 331 8.7 101530 90
2003-04-24 04:54:27 51°13.69 2°55.72 2.3 345 8.7 101530 90
2003-04-24 04:54:31 51°13.69 2°55.72 2.1 333 8.7 101520 90
2003-04-24 04:54:37 51°13.69 2°55.72 2 317 8.7 101520 90
2003-04-24 04:54:41 51°13.69 2°55.72 2 318 8.7 101520 90
2003-04-24 04:54:47 51°13.69 2°55.72 2.5 307 8.7 101520 90
2003-04-24 04:54:51 51°13.69 2°55.72 2.5 304 8.7 101520 90
2003-04-24 04:54:57 51°13.69 2°55.72 2.1 312 8.7 101520 90
2003-04-24 04:55:01 51°13.69 2°55.72 2.2 303 8.7 101520 90
2003-04-24 04:55:07 51°13.7 2°55.72 2.6 302 8.7 101520 90
2003-04-24 04:55:11 51°13.7 2°55.72 2.6 300 8.7 101520 90
2003-04-24 04:55:17 51°13.7 2°55.72 2.3 290 8.7 101520 90
2003-04-24 04:55:21 51°13.7 2°55.72 2.1 293 8.7 101520 90
2003-04-24 04:55:27 51°13.71 2°55.72 2.4 302 8.7 101520 90
2003-04-24 04:55:31 51°13.71 2°55.72 2.1 300 8.7 101520 90
2003-04-24 04:55:37 51°13.71 2°55.72 2.5 291 8.7 101520 90
2003-04-24 04:55:41 51°13.71 2°55.72 2.7 285 8.7 101520 90
2003-04-24 04:55:47 51°13.72 2°55.72 1.9 280 8.7 101520 90
2003-04-24 04:55:51 51°13.72 2°55.72 1.9 285 8.7 101520 90
2003-04-24 04:55:57 51°13.73 2°55.71 2.3 285 8.7 101520 90
2003-04-24 04:56:01 51°13.73 2°55.71 2.3 284 8.6 101520 90
2003-04-24 04:56:07 51°13.73 2°55.71 3 281 8.6 101520 90
2003-04-24 04:56:11 51°13.74 2°55.71 3.1 271 8.6 101520 90
2003-04-24 04:56:17 51°13.74 2°55.7 3.1 281 8.6 101520 90
2003-04-24 04:56:21 51°13.75 2°55.7 3.4 300 8.7 101520 90
2003-04-24 04:56:27 51°13.75 2°55.69 2.7 310 8.7 101520 90
2003-04-24 04:56:31 51°13.76 2°55.69 2.6 320 8.7 101520 90
2003-04-24 04:56:37 51°13.76 2°55.68 3.1 311 8.7 101520 90
2003-04-24 04:56:41 51°13.77 2°55.68 2.9 322 8.6 101520 90
2003-04-24 04:56:47 51°13.78 2°55.67 3.4 300 8.6 101520 90
2003-04-24 04:56:51 51°13.79 2°55.66 3.5 314 8.6 101520 90
2003-04-24 04:56:57 51°13.8 2°55.65 2.8 330 8.6 101520 90
2003-04-24 04:57:01 51°13.81 2°55.65 2.8 339 8.7 101520 90
2003-04-24 04:57:07 51°13.82 2°55.64 3.4 331 8.7 101520 90
2003-04-24 04:57:11 51°13.82 2°55.64 3.3 325 8.6 101520 90
2003-04-24 04:57:17 51°13.83 2°55.64 4.3 310 8.6 101520 90
2003-04-24 04:57:21 51°13.83 2°55.63 3.6 334 8.6 101520 90
2003-04-24 04:57:27 51°13.84 2°55.63 2.2 351 8.6 101520 90
2003-04-24 04:57:31 51°13.85 2°55.62 3.7 357 8.6 101520 90
2003-04-24 04:57:37 51°13.86 2°55.62 3.1 318 8.6 101520 90
2003-04-24 04:57:41 51°13.86 2°55.61 3.7 329 8.6 101520 91
2003-04-24 04:57:47 51°13.87 2°55.6 3.7 303 8.6 101520 91
2003-04-24 04:57:51 51°13.88 2°55.6 3.8 308 8.7 101520 90
2003-04-24 04:57:57 51°13.89 2°55.59 4.5 318 8.7 101520 90
2003-04-24 04:58:01 51°13.9 2°55.59 4.3 307 8.7 101520 91
2003-04-24 04:58:07 51°13.91 2°55.58 4 307 8.7 101520 91
2003-04-24 04:58:11 51°13.92 2°55.58 3.7 323 8.7 101520 90
2003-04-24 04:58:17 51°13.93 2°55.57 4 326 8.7 101520 90
2003-04-24 04:58:21 51°13.94 2°55.56 3.8 317 8.6 101520 91
2003-04-24 04:58:27 51°13.95 2°55.56 4.5 324 8.6 101520 91
2003-04-24 04:58:31 51°13.95 2°55.55 4.7 322 8.6 101520 90
2003-04-24 04:58:37 51°13.97 2°55.54 4.1 322 8.6 101520 90
2003-04-24 04:58:41 51°13.97 2°55.54 4 319 8.7 101520 91
2003-04-24 04:58:47 51°13.99 2°55.53 4 328 8.7 101520 91
2003-04-24 04:58:51 51°13.99 2°55.52 4 328 8.7 101520 91
2003-04-24 04:58:57 51°14 2°55.52 4.2 328 8.7 101520 91
2003-04-24 04:59:01 51°14.01 2°55.51 4.3 323 8.6 101520 91
2003-04-24 04:59:07 51°14.02 2°55.51 4.3 321 8.6 101520 91
2003-04-24 04:59:11 51°14.03 2°55.5 4.6 321 8.7 101520 91
2003-04-24 04:59:17 51°14.04 2°55.5 4.8 320 8.7 101520 91
2003-04-24 04:59:23 51°14.05 2°55.49 4.5 318 8.7 101520 91
2003-04-24 04:59:27 51°14.06 2°55.48 4.7 325 8.7 101520 91
2003-04-24 04:59:31 51°14.07 2°55.48 4.7 322 8.7 101520 91
2003-04-24 04:59:37 51°14.08 2°55.47 4.2 332 8.7 101520 91
2003-04-24 04:59:41 51°14.09 2°55.47 4 335 8.7 101520 91
2003-04-24 04:59:47 51°14.1 2°55.46 4.3 324 8.7 101520 91
2003-04-24 04:59:51 51°14.1 2°55.46 3.6 330 8.7 101520 91
2003-04-24 04:59:57 51°14.12 2°55.45 4.3 333 8.7 101520 91
2003-04-24 05:00:01 51°14.12 2°55.44 4.4 322 8.7 101520 91
2003-04-24 05:00:07 51°14.14 2°55.44 4.9 319 8.7 101520 91
2003-04-24 05:00:11 51°14.14 2°55.43 4.6 319 8.7 101520 91
2003-04-24 05:00:17 51°14.15 2°55.42 4.1 325 8.7 101520 91
2003-04-24 05:00:21 51°14.16 2°55.42 4.4 325 8.7 101520 91
2003-04-24 05:00:27 51°14.17 2°55.41 4.3 323 8.7 101520 91
2003-04-24 05:00:31 51°14.18 2°55.4 3.9 317 8.7 101520 91
2003-04-24 05:00:37 51°14.19 2°55.39 4.4 313 8.7 101520 91
2003-04-24 05:00:41 51°14.2 2°55.38 4.9 315 8.7 101520 90
2003-04-24 05:00:47 51°14.21 2°55.37 3.9 320 8.7 101520 90
2003-04-24 05:00:51 51°14.22 2°55.36 4.3 312 8.6 101520 90
2003-04-24 05:00:57 51°14.23 2°55.35 3.8 317 8.6 101520 90
2003-04-24 05:01:03 51°14.24 2°55.34 3.9 309 8.6 101520 90
2003-04-24 05:01:07 51°14.25 2°55.33 4 312 8.6 101520 90
2003-04-24 05:01:11 51°14.25 2°55.32 3.9 314 8.6 101520 90
2003-04-24 05:01:17 51°14.26 2°55.3 3.3 330 8.6 101520 90
2003-04-24 05:01:21 51°14.27 2°55.29 3.1 324 8.6 101510 90
2003-04-24 05:01:27 51°14.28 2°55.27 4.1 322 8.6 101510 90
2003-04-24 05:01:31 51°14.28 2°55.26 3.9 326 8.6 101520 90
2003-04-24 05:01:37 51°14.29 2°55.25 3.8 314 8.6 101520 90
2003-04-24 05:01:43 51°14.3 2°55.23 3.7 311 8.6 101520 91
2003-04-24 05:01:47 51°14.3 2°55.22 4.6 305 8.6 101520 91
2003-04-24 05:01:51 51°14.31 2°55.21 3.7 321 8.7 101520 91
2003-04-24 05:01:57 51°14.32 2°55.19 3.9 296 8.7 101520 91
2003-04-24 05:02:01 51°14.33 2°55.18 3.8 297 8.7 101520 91
2003-04-24 05:02:07 51°14.33 2°55.16 3.9 295 8.7 101520 91
2003-04-24 05:02:11 51°14.34 2°55.15 4 299 8.7 101520 91
2003-04-24 05:02:17 51°14.35 2°55.14 3.8 301 8.7 101520 91
2003-04-24 05:02:21 51°14.35 2°55.13 3.7 301 8.7 101510 91
2003-04-24 05:02:27 51°14.36 2°55.11 3.5 298 8.7 101510 91
2003-04-24 05:02:31 51°14.37 2°55.1 3 307 8.7 101520 91
2003-04-24 05:02:37 51°14.37 2°55.08 3.8 318 8.7 101520 91
2003-04-24 05:02:41 51°14.38 2°55.07 3.5 322 8.7 101520 91
2003-04-24 05:02:47 51°14.39 2°55.05 3.4 285 8.7 101520 91
2003-04-24 05:02:53 51°14.4 2°55.04 3.6 284 8.8 101520 91
2003-04-24 05:02:57 51°14.4 2°55.03 3.5 286 8.8 101520 91
2003-04-24 05:03:01 51°14.41 2°55.02 3.2 289 8.8 101520 91
2003-04-24 05:03:07 51°14.42 2°55 3.2 283 8.8 101520 91
2003-04-24 05:03:11 51°14.43 2°54.99 3.5 282 8.8 101520 91
2003-04-24 05:03:17 51°14.44 2°54.98 3.4 281 8.8 101520 91
2003-04-24 05:03:21 51°14.44 2°54.96 4 278 8.8 101520 91
2003-04-24 05:03:27 51°14.45 2°54.94 2.8 287 8.8 101520 91
2003-04-24 05:03:31 51°14.45 2°54.93 3.1 290 8.8 101520 91
2003-04-24 05:03:37 51°14.46 2°54.9 2.8 284 8.8 101520 91
2003-04-24 05:03:41 51°14.46 2°54.89 2.6 289 8.8 101520 91
2003-04-24 05:03:47 51°14.47 2°54.86 2.3 308 8.8 101520 91
2003-04-24 05:03:51 51°14.47 2°54.85 2.3 300 8.8 101520 91
2003-04-24 05:03:57 51°14.47 2°54.82 1.7 328 8.8 101520 91
2003-04-24 05:04:01 51°14.47 2°54.8 1.6 320 8.8 101520 91
2003-04-24 05:04:07 51°14.47 2°54.77 1.8 342 8.8 101520 91
2003-04-24 05:04:11 51°14.47 2°54.75 1.8 350 8.8 101520 91
2003-04-24 05:04:17 51°14.47 2°54.73 2.1 3 8.8 101520 91
2003-04-24 05:04:21 51°14.47 2°54.71 2.1 8 8.8 101520 91
2003-04-24 05:04:27 51°14.47 2°54.68 2.3 10 8.8 101520 91
2003-04-24 05:04:33 51°14.46 2°54.65 2.3 13 8.9 101520 91
2003-04-24 05:04:37 51°14.46 2°54.63 2 19 8.9 101520 91
2003-04-24 05:04:41 51°14.45 2°54.61 2.2 24 8.9 101520 91
2003-04-24 05:04:47 51°14.45 2°54.58 2.7 14 8.9 101520 91
2003-04-24 05:04:51 51°14.44 2°54.57 2.7 34 8.9 101520 91
2003-04-24 05:04:57 51°14.43 2°54.54 2.8 39 8.9 101520 91
2003-04-24 05:05:01 51°14.43 2°54.52 3.3 38 8.9 101520 91
2003-04-24 05:05:07 51°14.42 2°54.5 3.1 27 8.9 101520 91
2003-04-24 05:05:11 51°14.42 2°54.48 3.7 32 8.9 101520 91
2003-04-24 05:05:17 51°14.41 2°54.45 3.2 319 8.9 101520 91
2003-04-24 05:05:21 51°14.4 2°54.44 3.2 43 8.9 101520 91
2003-04-24 05:05:27 51°14.39 2°54.41 3.5 44 8.9 101520 91
2003-04-24 05:05:31 51°14.38 2°54.39 3.2 36 8.9 101530 91
2003-04-24 05:05:37 51°14.37 2°54.37 3.3 41 8.9 101530 91
2003-04-24 05:05:41 51°14.37 2°54.35 3.2 39 8.9 101520 91
2003-04-24 05:05:47 51°14.36 2°54.32 2.8 43 8.9 101520 91
2003-04-24 05:05:51 51°14.35 2°54.31 2.9 43 8.9 101520 91
2003-04-24 05:05:57 51°14.34 2°54.28 2.9 36 8.9 101520 91
2003-04-24 05:06:01 51°14.34 2°54.26 2.9 27 9 101520 91
2003-04-24 05:06:07 51°14.33 2°54.24 2.8 34 9 101520 91
2003-04-24 05:06:11 51°14.32 2°54.22 2.5 25 9 101520 91
2003-04-24 05:06:17 51°14.31 2°54.2 2.4 33 9 101520 91
2003-04-24 05:06:23 51°14.3 2°54.17 2.5 37 9 101530 91
2003-04-24 05:06:27 51°14.3 2°54.15 2.1 36 9 101530 91
2003-04-24 05:06:31 51°14.29 2°54.14 2.2 21 9 101520 91
2003-04-24 05:06:37 51°14.28 2°54.11 2.6 25 9 101520 91
2003-04-24 05:06:41 51°14.27 2°54.09 2.5 20 9 101520 91
2003-04-24 05:06:47 51°14.27 2°54.07 2.5 21 9 101520 91
2003-04-24 05:06:51 51°14.26 2°54.05 2.5 15 9 101520 91
2003-04-24 05:06:57 51°14.25 2°54.02 2.5 17 9 101520 91
2003-04-24 05:07:01 51°14.24 2°54.01 2.3 17 9 101520 91
2003-04-24 05:07:07 51°14.23 2°53.98 2.6 14 9 101520 91
2003-04-24 05:07:11 51°14.23 2°53.96 2.4 17 9 101520 91
2003-04-24 05:07:17 51°14.22 2°53.94 2.2 12 9 101520 91
2003-04-24 05:07:21 51°14.21 2°53.92 2.3 12 9 101520 91
2003-04-24 05:07:27 51°14.2 2°53.89 2.4 8 9 101520 91
2003-04-24 05:07:33 51°14.2 2°53.87 2.3 12 9 101510 91
2003-04-24 05:07:37 51°14.19 2°53.85 1.9 9 9 101510 91
2003-04-24 05:07:41 51°14.18 2°53.83 2 9 9 101520 91
2003-04-24 05:07:47 51°14.17 2°53.81 2.3 6 9 101520 91
2003-04-24 05:07:51 51°14.17 2°53.79 2.2 6 9 101520 91
2003-04-24 05:07:57 51°14.16 2°53.76 2.3 10 9 101520 91
2003-04-24 05:08:03 51°14.15 2°53.74 2.3 7 9 101520 91
2003-04-24 05:08:07 51°14.14 2°53.72 2.6 8 9 101520 91
2003-04-24 05:08:11 51°14.14 2°53.71 2.4 15 9.1 101520 91
2003-04-24 05:08:17 51°14.13 2°53.68 3.2 358 9.1 101520 91
2003-04-24 05:08:21 51°14.12 2°53.67 3.3 1 9 101520 91
2003-04-24 05:08:27 51°14.11 2°53.64 3 9 9 101520 91
2003-04-24 05:08:31 51°14.1 2°53.63 3.3 8 9 101520 91
2003-04-24 05:08:37 51°14.09 2°53.6 2.9 10 9 101520 91
2003-04-24 05:08:41 51°14.08 2°53.59 2.9 13 9 101520 91
2003-04-24 05:08:47 51°14.07 2°53.56 2.8 5 9 101520 91
2003-04-24 05:08:51 51°14.06 2°53.55 2.7 5 9 101520 91
2003-04-24 05:08:57 51°14.05 2°53.52 3.3 359 9 101520 91
2003-04-24 05:09:01 51°14.05 2°53.5 3.3 6 9.1 101520 91
2003-04-24 05:09:06 51°14.04 2°53.48 3.6 358 9.1 101520 91
2003-04-24 05:09:12 51°14.03 2°53.46 3.3 358 9 101520 91
2003-04-24 05:09:17 51°14.02 2°53.43 3.7 359 9 101520 91
2003-04-24 05:09:21 51°14.02 2°53.42 3.7 2 9 101520 91
2003-04-24 05:09:26 51°14.01 2°53.39 3.8 2 9 101520 91
2003-04-24 05:09:31 51°14 2°53.37 3.7 3 9.1 101520 91
2003-04-24 05:09:37 51°14 2°53.35 3.7 356 9.1 101520 91
2003-04-24 05:09:41 51°13.99 2°53.33 3.8 352 9.1 101520 91
2003-04-24 05:09:46 51°13.98 2°53.31 3.5 354 9.1 101520 91
2003-04-24 05:09:51 51°13.98 2°53.28 3.7 357 9.1 101520 91
2003-04-24 05:09:56 51°13.97 2°53.26 3.6 357 9.1 101520 91
2003-04-24 05:10:01 51°13.96 2°53.24 3.7 359 9.1 101520 91
2003-04-24 05:10:07 51°13.96 2°53.21 3.3 353 9.1 101520 91
2003-04-24 05:10:11 51°13.95 2°53.19 3.5 350 9.1 101520 91
2003-04-24 05:10:16 51°13.94 2°53.17 3.5 354 9.1 101520 91
2003-04-24 05:10:21 51°13.94 2°53.15 3.7 357 9.1 101520 91
2003-04-24 05:10:27 51°13.93 2°53.12 3.6 351 9.1 101520 91
2003-04-24 05:10:31 51°13.92 2°53.11 3.5 356 9.1 101520 91
2003-04-24 05:10:37 51°13.91 2°53.08 3.6 353 9.1 101520 91
2003-04-24 05:10:41 51°13.91 2°53.06 3.5 358 9.1 101520 91
2003-04-24 05:10:47 51°13.9 2°53.03 3.8 356 9.1 101520 91
2003-04-24 05:10:51 51°13.89 2°53.01 3.6 352 9.1 101520 91
2003-04-24 05:10:57 51°13.88 2°52.98 3.5 345 9.1 101520 91
2003-04-24 05:11:01 51°13.88 2°52.96 3.7 348 9.1 101520 91
2003-04-24 05:11:07 51°13.87 2°52.93 3.4 348 9.1 101520 91
2003-04-24 05:11:11 51°13.86 2°52.91 3.4 348 9.1 101520 91
2003-04-24 05:11:17 51°13.85 2°52.88 4 350 9.1 101520 91
2003-04-24 05:11:21 51°13.84 2°52.86 4 352 9.1 101520 91
2003-04-24 05:11:27 51°13.84 2°52.83 3.5 1 9.1 101520 91
2003-04-24 05:11:31 51°13.83 2°52.81 3.4 352 9.1 101520 91
2003-04-24 05:11:37 51°13.82 2°52.78 3.2 341 9.1 101520 91
2003-04-24 05:11:41 51°13.81 2°52.76 3.4 344 9.1 101520 91
2003-04-24 05:11:47 51°13.8 2°52.73 3 350 9.1 101520 91
2003-04-24 05:11:51 51°13.8 2°52.71 3.5 346 9.1 101520 91
2003-04-24 05:11:57 51°13.79 2°52.68 2.9 353 9.1 101520 91
2003-04-24 05:12:01 51°13.78 2°52.66 2.8 350 9.1 101520 91
2003-04-24 05:12:07 51°13.77 2°52.63 2.6 1 9.1 101520 91
2003-04-24 05:12:11 51°13.76 2°52.61 2.5 355 9.1 101520 91
2003-04-24 05:12:16 51°13.76 2°52.58 2.8 358 9.1 101520 91
2003-04-24 05:12:21 51°13.75 2°52.56 2.6 4 9.1 101520 91
2003-04-24 05:12:27 51°13.74 2°52.53 2.7 357 9.1 101520 91
2003-04-24 05:12:30 51°13.73 2°52.51 2.8 359 9.1 101520 91
2003-04-24 05:12:36 51°13.72 2°52.48 2.8   9.1 101520 91
2003-04-24 05:12:43 51°13.71 2°52.45 2.9 8 9.1 101520 91
2003-04-24 05:12:47 51°13.7 2°52.43 2.8 6 9.1 101520 91
2003-04-24 05:12:51 51°13.7 2°52.41 2.8 2 9.1 101520 91
2003-04-24 05:12:57 51°13.69 2°52.37 3.4 2 9.1 101520 91
2003-04-24 05:13:00 51°13.68 2°52.36 3.5 2 9.1 101520 91
2003-04-24 05:13:07 51°13.67 2°52.32 3.1 7 9.1 101520 91
2003-04-24 05:13:11 51°13.66 2°52.3 3.1 8 9.1 101510 90
2003-04-24 05:13:16 51°13.66 2°52.28 3.1 7 9.1 101510 90
2003-04-24 05:13:21 51°13.65 2°52.25 3 6 9.1 101520 90
2003-04-24 05:13:27 51°13.64 2°52.22 3.1 7 9.1 101520 90
2003-04-24 05:13:30 51°13.63 2°52.21 2.9 2 9.1 101520 91
2003-04-24 05:13:37 51°13.62 2°52.17 2.9 5 9.1 101520 91
2003-04-24 05:13:41 51°13.62 2°52.15 3.2 8 9.1 101520 91
2003-04-24 05:13:46 51°13.61 2°52.13 2.8 9 9.1 101520 91
2003-04-24 05:13:53 51°13.6 2°52.09 3.1 7 9.1 101520 91
2003-04-24 05:13:57 51°13.59 2°52.07 2.9   9.1 101520 91
2003-04-24 05:14:01 51°13.58 2°52.05 3 4 9.1 101520 90
2003-04-24 05:14:07 51°13.57 2°52.02 2.9 359 9.1 101520 90
2003-04-24 05:14:11 51°13.57 2°52 2.9 2 9.1 101520 91
2003-04-24 05:14:17 51°13.56 2°51.97 3 8 9.1 101520 91
2003-04-24 05:14:21 51°13.55 2°51.95 3 8 9.1 101520 91
2003-04-24 05:14:27 51°13.54 2°51.92 2.6 6 9.1 101520 91
2003-04-24 05:14:31 51°13.53 2°51.9 3.2 3 9.1 101520 90
2003-04-24 05:14:37 51°13.52 2°51.87 3.2 358 9.1 101520 90
2003-04-24 05:14:41 51°13.52 2°51.85 3.2 359 9.1 101520 91
2003-04-24 05:14:47 51°13.51 2°51.82 3.1 4 9.1 101520 91
2003-04-24 05:14:51 51°13.5 2°51.8 3.2 358 9.1 101520 91
2003-04-24 05:14:57 51°13.49 2°51.77 3 359 9.1 101520 91
2003-04-24 05:15:01 51°13.49 2°51.75 3 5 9.1 101520 91
2003-04-24 05:15:06 51°13.48 2°51.72 3.3 356 9.1 101520 91
2003-04-24 05:15:11 51°13.47 2°51.69 3 3 9.1 101520 91
2003-04-24 05:15:17 51°13.46 2°51.66 3.2 1 9.1 101520 91
2003-04-24 05:15:21 51°13.45 2°51.64 3.1 360 9.1 101520 91
2003-04-24 05:15:27 51°13.44 2°51.61 3.2 353 9.1 101520 91
2003-04-24 05:15:33 51°13.43 2°51.58 3.1 2 9.1 101520 91
2003-04-24 05:15:36 51°13.43 2°51.57 3 359 9.1 101520 91
2003-04-24 05:15:41 51°13.42 2°51.54 2.9 357 9.1 101520 91
2003-04-24 05:15:47 51°13.41 2°51.51 3 352 9.1 101520 91
2003-04-24 05:15:51 51°13.4 2°51.49 3 350 9.2 101520 91
2003-04-24 05:15:57 51°13.39 2°51.46 3 353 9.2 101520 91
2003-04-24 05:16:01 51°13.39 2°51.44 2.9 353 9.2 101520 91
2003-04-24 05:16:07 51°13.38 2°51.41 3.5 1 9.2 101520 91
2003-04-24 05:16:11 51°13.37 2°51.39 3.3 2 9.2 101520 91
2003-04-24 05:16:17 51°13.36 2°51.36 3.3 5 9.2 101520 91
2003-04-24 05:16:21 51°13.35 2°51.34 2.9 352 9.2 101520 90
2003-04-24 05:16:27 51°13.34 2°51.32 3.3 359 9.2 101520 90
2003-04-24 05:16:31 51°13.33 2°51.3 3.1 356 9.2 101520 91
2003-04-24 05:16:37 51°13.32 2°51.27 2.8 4 9.2 101520 91
2003-04-24 05:16:41 51°13.31 2°51.25 2.5 2 9.2 101520 91
2003-04-24 05:16:47 51°13.3 2°51.22 2.6 3 9.2 101520 91
2003-04-24 05:16:51 51°13.3 2°51.2 2.7 2 9.1 101520 91
2003-04-24 05:16:57 51°13.28 2°51.17 2.5 3 9.1 101520 91
2003-04-24 05:17:01 51°13.28 2°51.15 2.3 358 9.2 101510 91
2003-04-24 05:17:07 51°13.27 2°51.12 2.3 353 9.2 101510 91
2003-04-24 05:17:11 51°13.26 2°51.1 2.7 356 9.2 101510 91
2003-04-24 05:17:17 51°13.25 2°51.07 2.6 356 9.2 101510 91
2003-04-24 05:17:23 51°13.24 2°51.04 2.6 358 9.2 101520 91
2003-04-24 05:17:27 51°13.23 2°51.03 2.5 358 9.2 101520 91
2003-04-24 05:17:31 51°13.22 2°51.01 2.4 354 9.2 101510 91
2003-04-24 05:17:37 51°13.21 2°50.98 2.8 358 9.2 101510 91
2003-04-24 05:17:41 51°13.2 2°50.96 2.6 359 9.2 101520 90
2003-04-24 05:17:46 51°13.19 2°50.93 2.6 359 9.2 101520 90
2003-04-24 05:17:51 51°13.18 2°50.91 2.6 1 9.2 101510 90
2003-04-24 05:17:57 51°13.17 2°50.88 2.8 1 9.2 101510 90
2003-04-24 05:18:01 51°13.16 2°50.86 2.7 3 9.2 101510 90
2003-04-24 05:18:06 51°13.16 2°50.84 2.7 358 9.2 101510 90
2003-04-24 05:18:11 51°13.15 2°50.81 2.9 360 9.2 101510 90
2003-04-24 05:18:17 51°13.14 2°50.78 3.1 1 9.2 101510 90
2003-04-24 05:18:21 51°13.13 2°50.76 2.8 5 9.2 101510 90
2003-04-24 05:18:27 51°13.12 2°50.74 2.6 6 9.2 101510 90
2003-04-24 05:18:33 51°13.11 2°50.71 2.7 3 9.3 101520 90
2003-04-24 05:18:37 51°13.1 2°50.69 2.7 4 9.3 101520 90
2003-04-24 05:18:41 51°13.09 2°50.67 2.6 7 9.2 101510 90
2003-04-24 05:18:47 51°13.08 2°50.64 2.7 7 9.2 101510 90
2003-04-24 05:18:51 51°13.07 2°50.62 2.6 5 9.3 101520 90
2003-04-24 05:18:57 51°13.06 2°50.59 2.8 4 9.3 101520 90
2003-04-24 05:19:03 51°13.05 2°50.56 2.8 359 9.3 101510 90
2003-04-24 05:19:07 51°13.04 2°50.54 3.2 1 9.3 101510 90
2003-04-24 05:19:11 51°13.04 2°50.52 3   9.3 101520 90
2003-04-24 05:19:17 51°13.03 2°50.49 2.9 4 9.3 101520 90
2003-04-24 05:19:21 51°13.02 2°50.47 3.1 5 9.3 101520 90
2003-04-24 05:19:27 51°13.01 2°50.44 2.7 9 9.3 101520 90
2003-04-24 05:19:31 51°13 2°50.42 3.2 358 9.3 101520 90
2003-04-24 05:19:37 51°12.99 2°50.39 3.4 358 9.3 101520 90
2003-04-24 05:19:41 51°12.98 2°50.38 3.5 359 9.3 101520 90
2003-04-24 05:19:47 51°12.97 2°50.35 3.1 5 9.3 101520 90
2003-04-24 05:19:51 51°12.96 2°50.33 3.1 7 9.3 101510 90
2003-04-24 05:19:57 51°12.95 2°50.3 3.1 5 9.3 101510 90
2003-04-24 05:20:01 51°12.95 2°50.28 3.1 4 9.3 101520 90
2003-04-24 05:20:07 51°12.93 2°50.25 3.3 3 9.3 101520 90
2003-04-24 05:20:13 51°12.92 2°50.22 3.3 359 9.3 101520 90
2003-04-24 05:20:17 51°12.92 2°50.2 3.8 1 9.3 101520 90
2003-04-24 05:20:21 51°12.91 2°50.18 3.7 3 9.3 101520 90
2003-04-24 05:20:27 51°12.9 2°50.15 3.2 6 9.3 101520 90
2003-04-24 05:20:31 51°12.89 2°50.14 3.4 2 9.3 101520 90
2003-04-24 05:20:37 51°12.88 2°50.11 3.2 360 9.3 101520 90
2003-04-24 05:20:41 51°12.87 2°50.09 3.1 356 9.4 101520 90
2003-04-24 05:20:47 51°12.86 2°50.06 3.5 1 9.4 101520 90
2003-04-24 05:20:51 51°12.85 2°50.04 3.7 356 9.4 101520 91
2003-04-24 05:20:57 51°12.84 2°50.01 3.6 357 9.4 101520 91
2003-04-24 05:21:01 51°12.84 2°49.99 3.5 355 9.4 101520 90
2003-04-24 05:21:07 51°12.82 2°49.96 3.4   9.4 101520 90
2003-04-24 05:21:11 51°12.82 2°49.94 3.5 355 9.4 101520 90
2003-04-24 05:21:17 51°12.81 2°49.92 3.5 358 9.4 101520 90
2003-04-24 05:21:21 51°12.8 2°49.9 3.2 1 9.4 101520 90
2003-04-24 05:21:27 51°12.79 2°49.87 3.4 358 9.4 101520 90
2003-04-24 05:21:31 51°12.78 2°49.85 3.5 360 9.4 101520 90
2003-04-24 05:21:37 51°12.77 2°49.82 3.3 359 9.4 101520 90
2003-04-24 05:21:41 51°12.76 2°49.8 3.3 4 9.4 101520 90
2003-04-24 05:21:47 51°12.75 2°49.77 3.1 4 9.4 101520 90
2003-04-24 05:21:51 51°12.74 2°49.75 2.9 1 9.4 101520 90
2003-04-24 05:21:57 51°12.73 2°49.72 3.2 356 9.4 101520 90
2003-04-24 05:22:03 51°12.72 2°49.69 3.6 355 9.4 101510 90
2003-04-24 05:22:07 51°12.71 2°49.68 3.6 353 9.4 101510 90
2003-04-24 05:22:11 51°12.71 2°49.66 3.4 354 9.4 101520 90
2003-04-24 05:22:17 51°12.7 2°49.63 3.5 352 9.4 101520 90
2003-04-24 05:22:21 51°12.69 2°49.61 3.3 351 9.4 101520 90
2003-04-24 05:22:27 51°12.68 2°49.58 3.3 357 9.4 101520 90
2003-04-24 05:22:31 51°12.67 2°49.56 3.2 358 9.4 101510 90
2003-04-24 05:22:37 51°12.66 2°49.53 3.5 358 9.4 101510 90
2003-04-24 05:22:41 51°12.65 2°49.51 3.5 356 9.4 101510 90
2003-04-24 05:22:47 51°12.64 2°49.48 3.4 355 9.4 101510 90
2003-04-24 05:22:51 51°12.63 2°49.46 3.4 352 9.4 101520 90
2003-04-24 05:22:57 51°12.62 2°49.43 3.2 358 9.4 101520 90
2003-04-24 05:23:01 51°12.62 2°49.41 3.5 357 9.4 101510 90
2003-04-24 05:23:07 51°12.61 2°49.38 3.2 354 9.4 101510 90
2003-04-24 05:23:13 51°12.6 2°49.35 3.4 355 9.5 101520 90
2003-04-24 05:23:17 51°12.59 2°49.33 3.4 353 9.5 101520 90
2003-04-24 05:23:21 51°12.58 2°49.31 3.2 354 9.4 101510 90
2003-04-24 05:23:27 51°12.57 2°49.28 3.2 353 9.4 101510 90
2003-04-24 05:23:31 51°12.56 2°49.26 3.2 357 9.5 101510 90
2003-04-24 05:23:37 51°12.55 2°49.23 3.1 355 9.5 101510 90
2003-04-24 05:23:42 51°12.54 2°49.21 3.2 357 9.5 101520 90
2003-04-24 05:23:47 51°12.54 2°49.18 1.6 354 9.5 101520 90
2003-04-24 05:23:51 51°12.53 2°49.16 3 354 9.5 101510 90
2003-04-24 05:23:57 51°12.52 2°49.13 3.5 353 9.5 101510 90
2003-04-24 05:24:01 51°12.51 2°49.12 3.5 354 9.5 101520 90
2003-04-24 05:24:07 51°12.5 2°49.09 3.2 357 9.5 101520 90
2003-04-24 05:24:11 51°12.49 2°49.07 3.5 354 9.5 101520 90
2003-04-24 05:24:17 51°12.48 2°49.04 3.5 354 9.5 101520 90
2003-04-24 05:24:21 51°12.48 2°49.02 3.4 353 9.5 101520 90
2003-04-24 05:24:27 51°12.47 2°48.99 3.2 359 9.5 101520 90
2003-04-24 05:24:31 51°12.46 2°48.97 3.2 360 9.5 101510 90
2003-04-24 05:24:37 51°12.45 2°48.94 3 360 9.5 101510 90
2003-04-24 05:24:41 51°12.44 2°48.92 3.1 357 9.5 101510 90
2003-04-24 05:24:47 51°12.43 2°48.89 3.4 357 9.5 101510 90
2003-04-24 05:24:53 51°12.42 2°48.86 3.3 356 9.5 101510 90
2003-04-24 05:24:57 51°12.41 2°48.84 3.9 359 9.5 101510 90
2003-04-24 05:25:01 51°12.41 2°48.82 3.8 357 9.5 101510 90
2003-04-24 05:25:07 51°12.4 2°48.79 3.9 355 9.5 101510 90
2003-04-24 05:25:11 51°12.39 2°48.77 3.7 353 9.5 101510 90
2003-04-24 05:25:17 51°12.38 2°48.74 3.7 348 9.5 101510 90
2003-04-24 05:25:21 51°12.37 2°48.72 3.7 351 9.5 101510 90
2003-04-24 05:25:27 51°12.36 2°48.69 3.6 354 9.5 101510 90
2003-04-24 05:25:31 51°12.36 2°48.67 3.6 360 9.6 101510 90
2003-04-24 05:25:37 51°12.34 2°48.64 3.9 359 9.6 101510 90
2003-04-24 05:25:41 51°12.34 2°48.62 3.9 357 9.6 101520 90
2003-04-24 05:25:47 51°12.33 2°48.59 3.6 358 9.6 101520 90
2003-04-24 05:25:51 51°12.32 2°48.57 3.3   9.6 101520 90
2003-04-24 05:25:57 51°12.31 2°48.54 3.7 353 9.6 101520 90
2003-04-24 05:26:01 51°12.3 2°48.52 3.7 356 9.6 101520 90
2003-04-24 05:26:07 51°12.29 2°48.49 3.8 356 9.6 101520 90
2003-04-24 05:26:11 51°12.29 2°48.47 3.8 354 9.6 101520 90
2003-04-24 05:26:17 51°12.27 2°48.44 3.8 349 9.6 101520 90
2003-04-24 05:26:21 51°12.27 2°48.43 3.7 351 9.6 101520 90
2003-04-24 05:26:27 51°12.26 2°48.4 3.7 355 9.6 101520 90
2003-04-24 05:26:33 51°12.25 2°48.37 3.7 350 9.6 101520 90
2003-04-24 05:26:37 51°12.24 2°48.35 3.9 353 9.6 101520 90
2003-04-24 05:26:41 51°12.23 2°48.33 3.9 354 9.6 101520 90
2003-04-24 05:26:47 51°12.22 2°48.3 4.1 354 9.6 101520 90
2003-04-24 05:26:51 51°12.22 2°48.28 4 359 9.6 101520 90
2003-04-24 05:26:57 51°12.2 2°48.25 4   9.6 101520 90
2003-04-24 05:27:01 51°12.2 2°48.23 3.9 6 9.6 101520 90
2003-04-24 05:27:07 51°12.19 2°48.2 4.1 4 9.6 101520 90
2003-04-24 05:27:11 51°12.18 2°48.18 4 4 9.6 101520 90
2003-04-24 05:27:17 51°12.17 2°48.15 3.7 7 9.6 101520 90
2003-04-24 05:27:21 51°12.16 2°48.13 3.8 4 9.6 101520 90
2003-04-24 05:27:27 51°12.15 2°48.1 3.9 6 9.6 101520 90
2003-04-24 05:27:31 51°12.15 2°48.08 3.5 9 9.6 101520 90
2003-04-24 05:27:37 51°12.14 2°48.05 3.1 7 9.6 101520 90
2003-04-24 05:27:41 51°12.13 2°48.03 3.2 359 9.6 101520 90
2003-04-24 05:27:47 51°12.12 2°48 3.7 4 9.6 101520 90
2003-04-24 05:27:53 51°12.11 2°47.97 4 358 9.6 101520 90
2003-04-24 05:27:57 51°12.1 2°47.95 3.5 1 9.6 101520 90
2003-04-24 05:28:01 51°12.09 2°47.93 3.5 2 9.6 101520 90
2003-04-24 05:28:07 51°12.08 2°47.9 3.2 1 9.6 101520 90
2003-04-24 05:28:11 51°12.08 2°47.88 3.5 1 9.6 101520 90
2003-04-24 05:28:17 51°12.06 2°47.86 3.4 360 9.6 101520 90
2003-04-24 05:28:23 51°12.05 2°47.83 3.3 2 9.6 101520 90
2003-04-24 05:28:27 51°12.05 2°47.81 3.2 358 9.6 101520 90
2003-04-24 05:28:31 51°12.04 2°47.79 3.4 360 9.6 101520 90
2003-04-24 05:28:37 51°12.03 2°47.76 3.9 2 9.6 101520 90
2003-04-24 05:28:41 51°12.02 2°47.74 3.7 360 9.6 101520 90
2003-04-24 05:28:47 51°12.01 2°47.71 3.9 358 9.6 101520 90
2003-04-24 05:28:51 51°12.01 2°47.69 3.6 356 9.6 101520 90
2003-04-24 05:28:57 51°11.99 2°47.66 3.8 352 9.6 101520 90
2003-04-24 05:29:01 51°11.99 2°47.64 3.8 360 9.6 101520 90
2003-04-24 05:29:07 51°11.98 2°47.61 3.5 1 9.6 101520 90
2003-04-24 05:29:11 51°11.97 2°47.59 3.6 1 9.6 101510 90
2003-04-24 05:29:17 51°11.96 2°47.56 3.4 357 9.6 101510 90
2003-04-24 05:29:21 51°11.95 2°47.54 3.2 356 9.6 101520 90
2003-04-24 05:29:27 51°11.94 2°47.51 3.4 355 9.6 101520 90
2003-04-24 05:29:33 51°11.93 2°47.48 3.3 357 9.6 101520 90
2003-04-24 05:29:37 51°11.93 2°47.46 3.2 351 9.6 101520 90
2003-04-24 05:29:41 51°11.92 2°47.44 3.5 355 9.6 101520 90
2003-04-24 05:29:47 51°11.91 2°47.41 3.3 353 9.6 101520 90
2003-04-24 05:29:51 51°11.9 2°47.39 3.3 353 9.6 101520 90
2003-04-24 05:29:57 51°11.89 2°47.36 3.3 353 9.6 101520 90
2003-04-24 05:30:01 51°11.89 2°47.34 3.2 354 9.6 101520 90
2003-04-24 05:30:07 51°11.88 2°47.31 3.2 355 9.6 101520 90
2003-04-24 05:30:11 51°11.87 2°47.29 3.3 351 9.6 101520 90
2003-04-24 05:30:17 51°11.86 2°47.26 3.4 348 9.6 101520 90
2003-04-24 05:30:21 51°11.85 2°47.24 3.3 351 9.6 101520 90
2003-04-24 05:30:27 51°11.84 2°47.21 3.6 348 9.6 101520 90
2003-04-24 05:30:31 51°11.83 2°47.2 3.3 349 9.6 101520 90
2003-04-24 05:30:37 51°11.82 2°47.17 3.5 349 9.6 101520 90
2003-04-24 05:30:43 51°11.81 2°47.14 3.6 350 9.6 101520 90
2003-04-24 05:30:47 51°11.81 2°47.12 3.5 356 9.6 101520 90
2003-04-24 05:30:51 51°11.8 2°47.1 3.6 357 9.6 101510 89
2003-04-24 05:30:57 51°11.79 2°47.07 3.4 351 9.6 101510 89
2003-04-24 05:31:01 51°11.78 2°47.05 3.6 351 9.6 101520 89
2003-04-24 05:31:07 51°11.77 2°47.02 3.5 353 9.6 101520 89
2003-04-24 05:31:13 51°11.76 2°46.99 3.7 352 9.6 101520 89
2003-04-24 05:31:17 51°11.76 2°46.97 3.4 349 9.6 101520 89
2003-04-24 05:31:21 51°11.75 2°46.95 3.4 350 9.6 101520 89
2003-04-24 05:31:27 51°11.74 2°46.92 3.2 354 9.6 101520 89
2003-04-24 05:31:31 51°11.74 2°46.9 3.2 348 9.6 101520 89
2003-04-24 05:31:37 51°11.73 2°46.87 3.3 348 9.6 101520 89
2003-04-24 05:31:41 51°11.72 2°46.85 3.1 352 9.6 101520 89
2003-04-24 05:31:47 51°11.71 2°46.81 3.1 350 9.6 101520 89
2003-04-24 05:31:51 51°11.71 2°46.79 3.1 355 9.6 101520 89
2003-04-24 05:31:57 51°11.7 2°46.76 3.6 350 9.6 101520 89
2003-04-24 05:32:01 51°11.69 2°46.74 3.5 356 9.6 101520 89
2003-04-24 05:32:07 51°11.68 2°46.71 3.6 356 9.6 101520 89
2003-04-24 05:32:11 51°11.68 2°46.69 3.5 1 9.7 101520 89
2003-04-24 05:32:17 51°11.67 2°46.66 4.1 4 9.7 101520 89
2003-04-24 05:32:23 51°11.66 2°46.63 3.9 6 9.7 101520 89
2003-04-24 05:32:27 51°11.65 2°46.61 3.9 7 9.7 101520 89
2003-04-24 05:32:31 51°11.65 2°46.59 3.6 354 9.7 101520 89
2003-04-24 05:32:37 51°11.64 2°46.56 3.1 357 9.7 101520 89
2003-04-24 05:32:41 51°11.63 2°46.54 3.1 355 9.7 101520 89
2003-04-24 05:32:47 51°11.63 2°46.51 3 352 9.7 101520 89
2003-04-24 05:32:51 51°11.62 2°46.49 3.1 358 9.7 101520 89
2003-04-24 05:32:57 51°11.61 2°46.46 3.2 356 9.7 101520 89
2003-04-24 05:33:03 51°11.6 2°46.43 3.3 351 9.7 101520 89
2003-04-24 05:33:07 51°11.6 2°46.41 3.3 357 9.7 101520 89
2003-04-24 05:33:11 51°11.59 2°46.38 3.2 356 9.7 101520 89
2003-04-24 05:33:17 51°11.59 2°46.35 3 354 9.7 101520 89
2003-04-24 05:33:21 51°11.58 2°46.33 3.1 351 9.7 101520 89
2003-04-24 05:33:27 51°11.57 2°46.3 3 347 9.7 101520 89
2003-04-24 05:33:31 51°11.57 2°46.28 3 353 9.7 101520 89
2003-04-24 05:33:37 51°11.56 2°46.25 3 350 9.7 101520 89
2003-04-24 05:33:41 51°11.55 2°46.23 3.2 349 9.7 101520 89
2003-04-24 05:33:47 51°11.55 2°46.2 3.9 346 9.7 101520 89
2003-04-24 05:33:51 51°11.54 2°46.18 3.7 348 9.7 101520 89
2003-04-24 05:33:57 51°11.53 2°46.14 4.1 358 9.7 101520 89
2003-04-24 05:34:03 51°11.52 2°46.11 3.8 356 9.7 101520 89
2003-04-24 05:34:07 51°11.52 2°46.09 3.6 1 9.7 101520 89
2003-04-24 05:34:13 51°11.51 2°46.06 3.5 355 9.7 101510 89
2003-04-24 05:34:17 51°11.51 2°46.04 3.2 358 9.7 101510 89
2003-04-24 05:34:21 51°11.5 2°46.02 3.2 352 9.7 101510 89
2003-04-24 05:34:27 51°11.49 2°45.99 3.3 356 9.7 101510 89
2003-04-24 05:34:31 51°11.49 2°45.97 3.2 353 9.7 101520 89
2003-04-24 05:34:37 51°11.48 2°45.93 3.2   9.7 101520 89
2003-04-24 05:34:43 51°11.47 2°45.9 3.5 357 9.7 101510 89
2003-04-24 05:34:47 51°11.47 2°45.88 3.5 354 9.7 101510 89
2003-04-24 05:34:51 51°11.46 2°45.86 3.4 359 9.8 101520 89
2003-04-24 05:34:57 51°11.45 2°45.83 3.3 355 9.8 101520 89
2003-04-24 05:35:01 51°11.45 2°45.81 3.5 359 9.8 101520 89
2003-04-24 05:35:07 51°11.44 2°45.78 3.3 355 9.8 101520 89
2003-04-24 05:35:11 51°11.43 2°45.76 3.6 356 9.8 101510 89
2003-04-24 05:35:17 51°11.43 2°45.72 3.3 353 9.8 101510 89
2003-04-24 05:35:23 51°11.42 2°45.69 3.2 359 9.8 101510 89
2003-04-24 05:35:27 51°11.41 2°45.67 2.9 6 9.8 101510 89
2003-04-24 05:35:31 51°11.41 2°45.65 3.4 360 9.8 101520 89
2003-04-24 05:35:37 51°11.4 2°45.62 3 348 9.8 101520 89
2003-04-24 05:35:43 51°11.39 2°45.59 3.1 356 9.8 101510 89
2003-04-24 05:35:47 51°11.39 2°45.57 2.8 353 9.8 101510 89
2003-04-24 05:35:53 51°11.38 2°45.53 2.7 6 9.8 101510 89
2003-04-24 05:35:57 51°11.38 2°45.51 2.9 350 9.8 101510 89
2003-04-24 05:36:01 51°11.37 2°45.49 2.9 350 9.8 101510 89
2003-04-24 05:36:07 51°11.37 2°45.46 3 349 9.8 101510 89
2003-04-24 05:36:11 51°11.36 2°45.44 3.2 359 9.8 101520 89
2003-04-24 05:36:17 51°11.35 2°45.4 2.9 356 9.8 101520 89
2003-04-24 05:36:21 51°11.35 2°45.38 3 350 9.8 101520 89
2003-04-24 05:36:27 51°11.34 2°45.35 3.1 345 9.8 101520 89
2003-04-24 05:36:33 51°11.34 2°45.32 2.9 340 9.8 101510 89
2003-04-24 05:36:37 51°11.34 2°45.29 2.8 334 9.8 101510 89
2003-04-24 05:36:41 51°11.33 2°45.27 2.8 339 9.8 101520 89
2003-04-24 05:36:47 51°11.33 2°45.24 3.2 325 9.8 101520 89
2003-04-24 05:36:51 51°11.32 2°45.22 3 332 9.8 101510 89
2003-04-24 05:36:57 51°11.32 2°45.18 3 332 9.8 101510 89
2003-04-24 05:37:03 51°11.32 2°45.15 3.3 344 9.9 101510 89
2003-04-24 05:37:07 51°11.31 2°45.13 3.2 340 9.9 101510 89
2003-04-24 05:37:11 51°11.31 2°45.11 3.2 338 9.9 101510 89
2003-04-24 05:37:17 51°11.31 2°45.07 2.5 327 9.9 101510 89
2003-04-24 05:37:21 51°11.3 2°45.05 2.4 339 9.9 101510 89
2003-04-24 05:37:27 51°11.3 2°45.02 2.5 332 9.9 101510 89
2003-04-24 05:37:31 51°11.3 2°44.99 2.2 334 9.9 101510 89
2003-04-24 05:37:37 51°11.29 2°44.96 2.3 340 9.9 101510 89
2003-04-24 05:37:43 51°11.29 2°44.93 2.6 331 9.9 101510 89
2003-04-24 05:37:47 51°11.29 2°44.91 2.5 346 9.9 101510 89
2003-04-24 05:37:51 51°11.28 2°44.88 2.6 340 9.8 101510 89
2003-04-24 05:37:57 51°11.28 2°44.85 2.8 342 9.8 101510 89
2003-04-24 05:38:01 51°11.28 2°44.83 2.8 345 9.8 101510 89
2003-04-24 05:38:07 51°11.27 2°44.79 2.4 338 9.8 101510 89
2003-04-24 05:38:13 51°11.27 2°44.76 2.4 335 9.8 101510 89
2003-04-24 05:38:17 51°11.27 2°44.74 3 330 9.8 101510 89
2003-04-24 05:38:21 51°11.26 2°44.72 3 334 9.8 101510 89
2003-04-24 05:38:27 51°11.26 2°44.68 2.9 327 9.8 101510 89
2003-04-24 05:38:31 51°11.26 2°44.66 3.3 331 9.8 101510 89
2003-04-24 05:38:37 51°11.26 2°44.63 3.5 328 9.8 101510 89
2003-04-24 05:38:42 51°11.25 2°44.6 3.4 328 9.8 101520 88
2003-04-24 05:38:46 51°11.25 2°44.57 3.6 325 9.8 101520 88
2003-04-24 05:38:53 51°11.25 2°44.54 3.1 330 9.8 101510 89
2003-04-24 05:38:57 51°11.24 2°44.51 2.9 326 9.8 101510 89
2003-04-24 05:39:01 51°11.24 2°44.49 3 328 9.8 101510 88
2003-04-24 05:39:06 51°11.24 2°44.46 2.8 334 9.8 101510 88
2003-04-24 05:39:10 51°11.23 2°44.44 3.4 333 9.8 101510 88
2003-04-24 05:39:17 51°11.23 2°44.4 3.7 334 9.8 101510 88
2003-04-24 05:39:22 51°11.23 2°44.37 3.7 333 9.8 101510 88
2003-04-24 05:39:26 51°11.23 2°44.35 4.1 336 9.8 101510 88
2003-04-24 05:39:31 51°11.22 2°44.32 4.3 339 9.8 101510 88
2003-04-24 05:39:37 51°11.22 2°44.29 4.2 336 9.8 101510 88
2003-04-24 05:39:41 51°11.22 2°44.27 4.1 336 9.8 101510 88
2003-04-24 05:39:46 51°11.21 2°44.24 4.2 332 9.8 101510 88
2003-04-24 05:39:53 51°11.21 2°44.2 4 325 9.8 101510 88
2003-04-24 05:39:57 51°11.21 2°44.18 3.4 326 9.8 101510 88
2003-04-24 05:40:02 51°11.2 2°44.15 3.5 334 9.8 101510 88
2003-04-24 05:40:06 51°11.2 2°44.13 3.6 326 9.8 101510 88
2003-04-24 05:40:10 51°11.2 2°44.1 3.8 326 9.8 101520 89
2003-04-24 05:40:17 51°11.2 2°44.07 3.9 328 9.8 101520 89
2003-04-24 05:40:22 51°11.19 2°44.04 3.9 343 9.8 101510 88
2003-04-24 05:40:26 51°11.19 2°44.01 3.9 336 9.8 101510 88
2003-04-24 05:40:33 51°11.19 2°43.98 4 337 9.8 101520 88
2003-04-24 05:40:37 51°11.19 2°43.95 3.8 332 9.8 101520 88
2003-04-24 05:40:41 51°11.18 2°43.93 3.7 333 9.8 101520 88
2003-04-24 05:40:46 51°11.18 2°43.9 4.1 338 9.8 101520 88
2003-04-24 05:40:50 51°11.18 2°43.88 4.2 340 9.8 101520 88
2003-04-24 05:40:57 51°11.18 2°43.84 3.7 338 9.8 101520 88
2003-04-24 05:41:01 51°11.17 2°43.82 3.8 332 9.8 101520 88
2003-04-24 05:41:06 51°11.17 2°43.79 3.9 327 9.8 101520 88
2003-04-24 05:41:13 51°11.17 2°43.75 3.7 338 9.8 101520 88
2003-04-24 05:41:17 51°11.17 2°43.73 4.2 339 9.8 101520 88
2003-04-24 05:41:21 51°11.16 2°43.71 4 340 9.9 101520 88
2003-04-24 05:41:26 51°11.16 2°43.68 3.7 338 9.9 101520 88
2003-04-24 05:41:33 51°11.16 2°43.64 3.6 338 9.9 101520 88
2003-04-24 05:41:37 51°11.16 2°43.62 3.6 335 9.9 101520 88
2003-04-24 05:41:41 51°11.15 2°43.6 3.5 340 9.9 101520 88
2003-04-24 05:41:46 51°11.15 2°43.57 3.9 342 9.9 101520 88
2003-04-24 05:41:50 51°11.15 2°43.55 3.8 338 9.9 101520 88
2003-04-24 05:41:57 51°11.14 2°43.51 3.9 337 9.9 101520 88
2003-04-24 05:42:01 51°11.14 2°43.48 3.9 342 9.9 101520 88
2003-04-24 05:42:06 51°11.14 2°43.46 3.7 342 9.9 101520 88
2003-04-24 05:42:13 51°11.14 2°43.42 3.6 339 9.9 101520 88
2003-04-24 05:42:17 51°11.13 2°43.4 3.5 335 9.9 101520 88
2003-04-24 05:42:21 51°11.13 2°43.37 3.9 337 9.9 101520 88
2003-04-24 05:42:26 51°11.13 2°43.35 3.6 333 9.9 101520 88
2003-04-24 05:42:30 51°11.13 2°43.32 3.6 336 9.9 101530 88
2003-04-24 05:42:37 51°11.12 2°43.28 3.8 335 9.9 101530 88
2003-04-24 05:42:41 51°11.12 2°43.26 3.7 337 9.9 101520 88
2003-04-24 05:42:46 51°11.12 2°43.23 3.9 338 9.9 101520 88
2003-04-24 05:42:50 51°11.12 2°43.21 4.1 333 9.9 101520 88
2003-04-24 05:42:57 51°11.12 2°43.17 3.5 328 9.9 101520 88
2003-04-24 05:43:01 51°11.11 2°43.15 3.4 331 9.9 101520 88
2003-04-24 05:43:06 51°11.11 2°43.12 3.7 330 9.9 101520 88
2003-04-24 05:43:13 51°11.11 2°43.08 3.4 331 9.9 101520 88
2003-04-24 05:43:17 51°11.11 2°43.06 3.6 329 9.9 101520 88
2003-04-24 05:43:22 51°11.11 2°43.03 3.4 333 9.9 101520 88
2003-04-24 05:43:26 51°11.1 2°43.01 3.5 333 9.9 101520 88
2003-04-24 05:43:30 51°11.1 2°42.99 3.3 333 9.9 101520 88
2003-04-24 05:43:36 51°11.1 2°42.95 3.4 333 9.9 101520 88
2003-04-24 05:43:41 51°11.1 2°42.92 3.3 336 9.9 101520 88
2003-04-24 05:43:46 51°11.1 2°42.9 3.4 336 9.9 101520 88
2003-04-24 05:43:50 51°11.1 2°42.87 3.4 336 9.9 101520 88
2003-04-24 05:43:57 51°11.09 2°42.83 3.4 340 9.9 101520 88
2003-04-24 05:44:01 51°11.09 2°42.81 3.7 333 9.9 101520 88
2003-04-24 05:44:06 51°11.09 2°42.78 3.6 332 9.9 101520 88
2003-04-24 05:44:10 51°11.09 2°42.76 3.9 341 9.9 101520 88
2003-04-24 05:44:17 51°11.09 2°42.72 3.9 333 9.9 101520 88
2003-04-24 05:44:21 51°11.08 2°42.7 3.7 330 9.9 101520 88
2003-04-24 05:44:26 51°11.08 2°42.67 3.5 326 9.9 101520 88
2003-04-24 05:44:33 51°11.08 2°42.63 3.5 325 9.9 101520 88
2003-04-24 05:44:37 51°11.08 2°42.6 3.9 324 9.9 101520 88
2003-04-24 05:44:41 51°11.08 2°42.58 3.9 330 9.9 101520 88
2003-04-24 05:44:46 51°11.08 2°42.55 3.8 327 9.9 101520 88
2003-04-24 05:44:50 51°11.08 2°42.53 3.5 325 9.9 101520 88
2003-04-24 05:44:57 51°11.07 2°42.5 2.8 313 9.9 101520 88
2003-04-24 05:45:02 51°11.07 2°42.48 2.8 311 9.9 101520 88
2003-04-24 05:45:06 51°11.07 2°42.46 2.8 306 9.9 101520 88
2003-04-24 05:45:10 51°11.07 2°42.44 2.5 301 9.9 101510 88
2003-04-24 05:45:17 51°11.07 2°42.42 2.3 305 9.9 101510 88
2003-04-24 05:45:21 51°11.08 2°42.4 2.2 299 9.9 101520 88
2003-04-24 05:45:26 51°11.08 2°42.39 2.1 289 9.9 101520 88
2003-04-24 05:45:30 51°11.08 2°42.37 2.3 273 9.9 101520 88
2003-04-24 05:45:37 51°11.08 2°42.35 2.5 275 9.9 101520 88
2003-04-24 05:45:41 51°11.08 2°42.34 2.3 275 9.9 101520 88
2003-04-24 05:45:46 51°11.08 2°42.33 2.8 273 9.9 101520 88
2003-04-24 05:45:50 51°11.08 2°42.31 2.6 266 9.9 101520 88
2003-04-24 05:45:57 51°11.08 2°42.29 2.3 277 9.9 101520 88
2003-04-24 05:46:01 51°11.08 2°42.28 2.3 261 9.9 101520 88
2003-04-24 05:46:06 51°11.08 2°42.27 2.3 251 9.9 101520 88
2003-04-24 05:46:13 51°11.09 2°42.25 2.2 246 9.9 101520 88
2003-04-24 05:46:17 51°11.09 2°42.24 2.2 246 9.9 101520 88
2003-04-24 05:46:21 51°11.09 2°42.24 2 244 9.9 101520 88
2003-04-24 05:46:26 51°11.09 2°42.22 2.1 231 9.9 101520 88
2003-04-24 05:46:30 51°11.09 2°42.22 2.1 230 9.9 101520 88
2003-04-24 05:46:36 51°11.09 2°42.2 2 226 9.9 101520 88
2003-04-24 05:46:42 51°11.09 2°42.19 2 226 9.9 101520 88
2003-04-24 05:46:46 51°11.09 2°42.19 1.9 214 9.9 101520 88
2003-04-24 05:46:52 51°11.09 2°42.17 1.9 211 9.9 101520 88
2003-04-24 05:46:56 51°11.09 2°42.17 1.7 206 9.9 101520 88
2003-04-24 05:47:00 51°11.08 2°42.16 1.5 205 9.9 101520 88
2003-04-24 05:47:06 51°11.08 2°42.15 1.8 201 9.9 101520 88
2003-04-24 05:47:10 51°11.08 2°42.14 1.7 200 9.9 101520 88
2003-04-24 05:47:16 51°11.08 2°42.13 1.4 201 9.9 101520 88
2003-04-24 05:47:20 51°11.08 2°42.13 1.4 200 9.9 101520 88
2003-04-24 05:47:26 51°11.08 2°42.12 1.2 204 9.9 101520 88
2003-04-24 05:47:30 51°11.08 2°42.11 1.2 204 9.9 101520 88
2003-04-24 05:47:37 51°11.08 2°42.11 1.4 199 9.9 101520 88
2003-04-24 05:47:41 51°11.08 2°42.1 1.2 190 9.9 101520 88
2003-04-24 05:47:47 51°11.08 2°42.09 1.7 184 9.9 101520 88
2003-04-24 05:47:51 51°11.08 2°42.09 1.6 185 9.9 101520 88
2003-04-24 05:47:57 51°11.08 2°42.08 1.7 175 9.9 101520 88
2003-04-24 05:48:01 51°11.08 2°42.08 1.3 170 9.9 101520 88
2003-04-24 05:48:07 51°11.07 2°42.07 1.4 167 9.9 101520 88
2003-04-24 05:48:11 51°11.07 2°42.07 1.9 159 9.9 101520 88
2003-04-24 05:48:17 51°11.07 2°42.07 1.2 156 9.9 101520 88
2003-04-24 05:48:21 51°11.07 2°42.06 1.3 160 9.9 101520 88
2003-04-24 05:48:27 51°11.07 2°42.06 2 162 9.9 101520 88
2003-04-24 05:48:31 51°11.07 2°42.06 1.9 160 9.9 101520 89
2003-04-24 05:48:37 51°11.07 2°42.05 2.1 156 9.9 101520 89
2003-04-24 05:48:41 51°11.07 2°42.05 2.4 161 9.9 101530 89
2003-04-24 05:48:47 51°11.07 2°42.05 2.6 150 9.9 101530 89
2003-04-24 05:48:51 51°11.07 2°42.05 2.3 151 10 101530 89
2003-04-24 05:48:57 51°11.06 2°42.04 2.2 153 10 101530 89
2003-04-24 05:49:01 51°11.06 2°42.04 2.2 155 10 101520 89
2003-04-24 05:49:07 51°11.06 2°42.04 3.1 152 10 101520 89
2003-04-24 05:49:11 51°11.06 2°42.04 2.9 151 10 101520 89
2003-04-24 05:49:17 51°11.06 2°42.04 3.8 145 10 101520 89
2003-04-24 05:49:21 51°11.06 2°42.04 3.8 146 10 101520 89
2003-04-24 05:49:27 51°11.06 2°42.04 3.6 149 10 101520 89
2003-04-24 05:49:31 51°11.06 2°42.04 3.4 147 10 101520 89
2003-04-24 05:49:37 51°11.06 2°42.05 3.5 143 10 101520 89
2003-04-24 05:49:41 51°11.06 2°42.05 3.7 144 10 101520 89
2003-04-24 05:49:47 51°11.07 2°42.05 3.8 152 10 101520 89
2003-04-24 05:49:51 51°11.07 2°42.05 4 152 10 101520 88
2003-04-24 05:49:57 51°11.07 2°42.06 4.6 150 10 101520 88
2003-04-24 05:50:01 51°11.07 2°42.06 4.7 152 10 101520 88
2003-04-24 05:50:07 51°11.07 2°42.07 5 152 10 101520 88
2003-04-24 05:50:11 51°11.07 2°42.07 4.1 154 10 101520 88
2003-04-24 05:50:17 51°11.08 2°42.07 4.4 154 10 101520 88
2003-04-24 05:50:21 51°11.08 2°42.08 4.3 156 10 101520 88
2003-04-24 05:50:27 51°11.08 2°42.08 4.1 154 10 101520 88
2003-04-24 05:50:31 51°11.08 2°42.09 4.5 153 9.9 101520 88
2003-04-24 05:50:37 51°11.08 2°42.09 4.4 156 9.9 101520 88
2003-04-24 05:50:41 51°11.09 2°42.09 4.4 155 9.9 101520 88
2003-04-24 05:50:47 51°11.09 2°42.1 4.3 153 9.9 101520 88
2003-04-24 05:50:51 51°11.09 2°42.1 3.9 154 9.9 101520 88
2003-04-24 05:50:57 51°11.09 2°42.11 4.3 153 9.9 101520 88
2003-04-24 05:51:01 51°11.09 2°42.11 4.5 152 9.9 101520 88
2003-04-24 05:51:07 51°11.09 2°42.11 4.7 152 9.9 101520 88
2003-04-24 05:51:11 51°11.09 2°42.12 4.1 150 9.9 101520 88
2003-04-24 05:51:17 51°11.1 2°42.12 4.6 146 9.9 101520 88
2003-04-24 05:51:21 51°11.1 2°42.12 5 146 9.9 101520 88
2003-04-24 05:51:27 51°11.1 2°42.13 4.5 147 9.9 101520 88
2003-04-24 05:51:31 51°11.1 2°42.13 4.5 147 9.9 101520 88
2003-04-24 05:51:37 51°11.1 2°42.13 3.9 149 9.9 101520 88
2003-04-24 05:51:41 51°11.1 2°42.14 4.1 148 9.9 101520 88
2003-04-24 05:51:47 51°11.1 2°42.14 4.3 147 9.9 101520 88
2003-04-24 05:51:51 51°11.11 2°42.14 4.4 146 9.9 101520 88
2003-04-24 05:51:57 51°11.11 2°42.15 4.2 150 9.9 101520 88
2003-04-24 05:52:01 51°11.11 2°42.15 4.2 150 9.9 101520 88
2003-04-24 05:52:05 51°11.11 2°42.15 4 149 9.9 101520 88
2003-04-24 05:52:11 51°11.11 2°42.15 3.9 151 9.9 101520 88
2003-04-24 05:52:15 51°11.11 2°42.16 4.4 152 9.9 101520 88
2003-04-24 05:52:21 51°11.11 2°42.16 4.1 149 9.9 101520 88
2003-04-24 05:52:25 51°11.11 2°42.16 4.7 147 9.9 101520 88
2003-04-24 05:52:31 51°11.11 2°42.17 4.3 149 9.9 101520 88
2003-04-24 05:52:36 51°11.12 2°42.17 4.7 148 9.9 101520 88
2003-04-24 05:52:42 51°11.12 2°42.17 4.4 150 9.9 101520 88
2003-04-24 05:52:46 51°11.12 2°42.17 4.7 149 9.9 101520 88
2003-04-24 05:52:52 51°11.12 2°42.18 4.2 150 9.9 101520 88
2003-04-24 05:52:56 51°11.12 2°42.18 4.2 152 9.9 101520 88
2003-04-24 05:53:02 51°11.12 2°42.18 4 148 9.9 101520 88
2003-04-24 05:53:06 51°11.12 2°42.18 3.7 147 9.9 101520 88
2003-04-24 05:53:12 51°11.12 2°42.19 4 147 9.9 101520 88
2003-04-24 05:53:16 51°11.12 2°42.19 4.4 151 9.9 101520 88